Weather History for Chicago Executive, IL

Change the Weather History Date:

Thursday, January 3, 2013

  Actual Average Record
Temperature  
Mean Temperature 24 °F 24 °F  
Max Temperature 30 °F 31 °F 58 °F (1998)
Min Temperature 18 °F 17 °F -7 °F (2014)
Degree Days  
Heating Degree Days 41 41  
Month to date heating degree days 133 123  
Since 1 July heating degree days 2356 2540  
Cooling Degree Days 0 0  
Month to date cooling degree days 0 0  
Year to date cooling degree days 0 0  
Moisture  
Dew Point 19 °F    
Average Humidity 74    
Maximum Humidity 81    
Minimum Humidity 64    
Precipitation  
Precipitation 0.00 in 0.05 in 0.22 in (2005)
Month to date precipitation 0.00 0.16  
Year to date precipitation 0.00 0.16  
Sea Level Pressure  
Sea Level Pressure 30.18 in    
Wind  
Wind Speed 9 mph (West)    
Max Wind Speed 17 mph    
Max Gust Speed 25 mph    
Visibility 8 miles    
Events      
T = Trace of Precipitation, MM = Missing Value Source: NWS Daily Summary

Daily Weather History Graph

Daily Weather History Graph

Search for Another Location

Airport:

Trip Planner

Search our weather history database for the weather conditions in past years. The results will help you decide how hot, cold, wet, or windy it might be!

Date:

Astronomy

Jan. 03, 2013 Rise Set
Actual Time 7:20 AM CST 4:32 PM CST
Civil Twilight 6:48 AM CST 5:04 PM CST
Nautical Twilight 6:13 AM CST 5:39 PM CST
Astronomical Twilight 5:39 AM CST 6:13 PM CST
Moon 11:15 PM CST (1/3) 10:24 AM CST (1/3)
Length of Visible Light 10h 15m
Length of Day
9h 12m
Waning Gibbous, 65% of the Moon is Illuminated
Jan 3
Waning Gibbous
Jan 4
Last Quarter
Jan 11
New
Jan 18
First Quarter
Jan 26
Full

Hourly Weather History & Observations

Time (CST) Temp. Windchill Dew Point Humidity Pressure Visibility Wind Dir Wind Speed Gust Speed Precip Events Conditions
1:52 AM 25.0 °F 17.1 °F 17.1 °F 72% 30.11 in 8.0 mi SW 6.9 mph - N/A   Overcast
2:52 AM 25.0 °F 15.5 °F 18.0 °F 75% 30.12 in 9.0 mi SW 9.2 mph - N/A   Overcast
3:02 AM 24.8 °F 16.9 °F 17.6 °F 74% 30.09 in 9.0 mi WSW 6.9 mph - N/A   Overcast
3:14 AM 24.8 °F 15.3 °F 19.4 °F 80% 30.09 in 9.0 mi WSW 9.2 mph - N/A   Overcast
3:52 AM 26.1 °F 18.4 °F 19.9 °F 78% 30.11 in 8.0 mi West 6.9 mph - N/A   Overcast
4:09 AM 26.6 °F 19.1 °F 19.4 °F 74% 30.08 in 7.0 mi West 6.9 mph - N/A   Overcast
4:19 AM 26.6 °F 19.1 °F 19.4 °F 74% 30.08 in 7.0 mi West 6.9 mph - N/A   Overcast
4:52 AM 26.1 °F 16.8 °F 21.0 °F 81% 30.11 in 6.0 mi WSW 9.2 mph - N/A   Haze
5:16 AM 26.6 °F 17.5 °F 21.2 °F 80% 30.09 in 6.0 mi West 9.2 mph - N/A   Haze
5:52 AM 27.0 °F 17.3 °F 21.9 °F 81% 30.14 in 6.0 mi WSW 10.4 mph 16.1 mph N/A   Haze
6:52 AM 28.0 °F 20.8 °F 21.9 °F 78% 30.15 in 6.0 mi West 6.9 mph - N/A   Haze
7:52 AM 28.0 °F 20.0 °F 23.0 °F 81% 30.17 in 5.0 mi West 8.1 mph - N/A   Haze
8:52 AM 28.9 °F 20.4 °F 23.0 °F 78% 30.18 in 5.0 mi West 9.2 mph - N/A   Haze
9:07 AM 28.4 °F 19.7 °F 21.2 °F 74% 30.15 in 5.0 mi WNW 9.2 mph - N/A   Haze
9:52 AM 28.9 °F 20.4 °F 21.0 °F 72% 30.20 in 7.0 mi WNW 9.2 mph - N/A   Overcast
10:52 AM 28.9 °F 19.2 °F 19.0 °F 67% 30.19 in 10.0 mi WNW 11.5 mph 21.9 mph N/A   Overcast
11:52 AM 28.9 °F 17.7 °F 18.0 °F 64% 30.19 in 10.0 mi WNW 15.0 mph 20.7 mph N/A   Overcast
12:52 PM 28.9 °F 19.8 °F 19.0 °F 67% 30.19 in 10.0 mi West 10.4 mph 19.6 mph N/A   Overcast
12:56 PM 28.4 °F 18.5 °F 19.4 °F 69% 30.16 in 10.0 mi West 11.5 mph 19.6 mph N/A   Overcast
1:52 PM 28.9 °F 19.8 °F 19.9 °F 69% 30.19 in 9.0 mi West 10.4 mph 18.4 mph N/A   Mostly Cloudy
2:52 PM 28.0 °F 19.3 °F 19.9 °F 72% 30.21 in 8.0 mi West 9.2 mph - N/A   Overcast
3:52 PM 28.0 °F 19.3 °F 19.0 °F 69% 30.24 in 8.0 mi West 9.2 mph - N/A   Overcast
4:04 PM 28.4 °F 19.1 °F 19.4 °F 69% 30.21 in 8.0 mi West 10.4 mph - N/A   Overcast
4:52 PM 27.0 °F 16.7 °F 19.0 °F 72% 30.25 in 9.0 mi West 11.5 mph - N/A   Overcast
5:52 PM 26.1 °F 15.0 °F 18.0 °F 71% 30.27 in 10.0 mi West 12.7 mph 18.4 mph N/A   Overcast
6:52 PM 25.0 °F 14.8 °F 17.1 °F 72% 30.27 in 9.0 mi West 10.4 mph - N/A   Overcast
7:52 PM 23.0 °F 13.9 °F 16.0 °F 74% 30.28 in 9.0 mi West 8.1 mph - N/A   Clear
8:52 PM 21.0 °F 9.3 °F 15.1 °F 78% 30.29 in 9.0 mi West 11.5 mph - N/A   Clear
9:52 PM 19.9 °F 10.1 °F 14.0 °F 78% 30.28 in 9.0 mi WSW 8.1 mph - N/A   Clear
10:52 PM 19.0 °F 10.0 °F 12.9 °F 77% 30.28 in 9.0 mi WSW 6.9 mph - N/A   Clear
11:52 PM 18.0 °F 7.7 °F 12.0 °F 78% 30.28 in 9.0 mi West 8.1 mph - N/A   Clear